This is the latest recevied weather packets stored in our database for station/object OH2HCY-3. If no packets are shown the sender has not sent any weather packets the latest 10 day(s).
| Time | Temp. | Humidity | Pressure | Rain* | Wind** | Luminosity | Snow |
|---|---|---|---|---|---|---|---|
| 1777224815 | 5.56° C | 41% | 1009.5 hPa | - | - | - | - |
| 1777223720 | 6.67° C | 36% | 1009.2 hPa | - | - | - | - |
| 1777222755 | 6.11° C | 34% | 1009.2 hPa | - | - | - | - |
| 1777221725 | 6.11° C | 34% | 1009 hPa | - | - | - | - |
| 1777220745 | 6.67° C | 33% | 1008.8 hPa | - | - | - | - |
| 1777219595 | 6.67° C | 31% | 1008.6 hPa | - | - | - | - |
| 1777218610 | 7.22° C | 31% | 1008.5 hPa | - | - | - | - |
| 1777217487 | 6.67° C | 28% | 1008.4 hPa | - | - | - | - |
| 1777216295 | 7.22° C | 26% | 1008.2 hPa | - | - | - | - |
| 1777215165 | 7.22° C | 25% | 1008 hPa | - | - | - | - |
| 1777214030 | 8.33° C | 23% | 1007.6 hPa | - | - | - | - |
| 1777213050 | 7.78° C | 22% | 1007.4 hPa | - | - | - | - |
| 1777212040 | 8.33° C | 23% | 1007.3 hPa | - | - | - | - |
| 1777210847 | 8.33° C | 22% | 1007.2 hPa | - | - | - | - |
| 1777209760 | 7.22° C | 25% | 1006.9 hPa | - | - | - | - |
| 1777208760 | 6.67° C | 25% | 1006.9 hPa | - | - | - | - |
| 1777207595 | 7.78° C | 24% | 1006.7 hPa | - | - | - | - |
| 1777206421 | 7.22° C | 27% | 1006.6 hPa | - | - | - | - |
| 1777205305 | 6.11° C | 25% | 1006.5 hPa | - | - | - | - |
| 1777204328 | 7.22° C | 25% | 1006.2 hPa | - | - | - | - |
| 1777203150 | 7.22° C | 25% | 1005.9 hPa | - | - | - | - |
| 1777202130 | 7.22° C | 25% | 1005.7 hPa | - | - | - | - |
| 1777201110 | 6.67° C | 26% | 1005.5 hPa | - | - | - | - |
| 1777199975 | 6.67° C | 25% | 1005.3 hPa | - | - | - | - |
| 1777198845 | 6.67° C | 27% | 1005.1 hPa | - | - | - | - |
* Rain since midnight (hover to see other rain measurements)
** Current wind speed in m/s (hover to see current wind gust speed)